Regional Weather Roundup
Issued by NWS Little Rock, AR

Home | Current Version | Previous Version | Graphics & Text | Print | Product List | Glossary On
Versions: 1 2 3 4 5 6 7 8 9 10 11 12 13 14 15 16 17 18 19 20 21 22 23 24 25 26 27 28 29 30 31 32 33 34 35 36 37 38 39 40 41 42 43 44 45 46 47 48 49 50
000
ASUS44 KLZK 251805
RWRLZK

WEATHER ROUNDUP FOR ARKANSAS
NATIONAL WEATHER SERVICE LITTLE ROCK AR
1200 PM CST TUE NOV 25 2014

NOTE: "FAIR" INDICATES FEW OR NO CLOUDS BELOW 12,000 FEET WITH NO
SIGNIFICANT WEATHER AND/OR OBSTRUCTIONS TO VISIBILITY.

ARZ001-003-010-029-251900-
NORTHWEST ARKANSAS

CITY           SKY/WX    TMP DP  RH WIND       PRES   REMARKS
FAYETTEVILLE   SUNNY     43  14  31 VRB3      30.24F
6HR MIN TEMP:  21; 6HR MAX TEMP:  44;

FORT SMITH     SUNNY     49  14  24 SW6       30.27F
6HR MIN TEMP:  30; 6HR MAX TEMP:  50;

HARRISON       SUNNY     43  16  33 VRB3      30.22F
6HR MIN TEMP:  29; 6HR MAX TEMP:  43;

BENTONVILLE    SUNNY     41  16  36 NW3       30.24F
6HR MIN TEMP:  25; 6HR MAX TEMP:  41;

ROGERS         SUNNY     41  15  35 W7        30.23F
6HR MIN TEMP:  25; 6HR MAX TEMP:  41;

SILOAM SPGS    SUNNY     43  16  33 CALM      30.25F
6HR MIN TEMP:  27; 6HR MAX TEMP:  43;

HIGHFILL       SUNNY     43  14  31 VRB3      30.23F
6HR MIN TEMP:  26; 6HR MAX TEMP:  43;

$$

ARZ004-005-016-251900-
NORTH CENTRAL ARKANSAS

CITY           SKY/WX    TMP DP  RH WIND       PRES   REMARKS
BATESVILLE     SUNNY     46  21  36 W8        30.22F
6HR MIN TEMP:  28; 6HR MAX TEMP:  46;

FLIPPIN        SUNNY     43  18  36 SW3       30.24F
6HR MIN TEMP:  27; 6HR MAX TEMP:  43;

MTN HOME       SUNNY     41  18  39 VRB5      30.23F
6HR MIN TEMP:  31; 6HR MAX TEMP:  41;

$$

ARZ040-041-251900-
WEST CENTRAL ARKANSAS

CITY           SKY/WX    TMP DP  RH WIND       PRES   REMARKS
MENA           SUNNY     54  21  28 NW6       30.24F
MOUNT IDA      SUNNY     53  17  24 VRB7      30.22F
6HR MIN TEMP:  25; 6HR MAX TEMP:  53;

$$

ARZ009-017-025-026-028-251900-
NORTHEAST ARKANSAS

CITY           SKY/WX    TMP DP  RH WIND       PRES   REMARKS
CORNING        FAIR      41  25  52 NW5       30.22F
JONESBORO      SUNNY     42  24  49 NW9       30.22F
6HR MIN TEMP:  33; 6HR MAX TEMP:  43;

NEWPORT        SUNNY     47  21  35 N7        30.24F
6HR MIN TEMP:  31; 6HR MAX TEMP:  47;

WALNUT RIDGE   SUNNY     45  21  39 N9        30.21F
6HR MIN TEMP:  32; 6HR MAX TEMP:  45;

BLYTHEVILLE    SUNNY     56  29  35 NW10      30.22F
6HR MIN TEMP:  37; 6HR MAX TEMP:  59;

$$

ARZ022-023-033-042-044-251900-
CENTRAL ARKANSAS

CITY           SKY/WX    TMP DP  RH WIND       PRES   REMARKS
LITTLE ROCK    MOSUNNY   53  15  22 NW10      30.25F
6HR MIN TEMP:  31; 6HR MAX TEMP:  53;

N LITTLE ROCK  MOSUNNY   50  21  32 NW8       30.25F
6HR MIN TEMP:  36; 6HR MAX TEMP:  50;

JACKSONVILLE   SUNNY     50  20  30 NW8       30.23F
6HR MIN TEMP:  25; 6HR MAX TEMP:  50;

SEARCY         SUNNY     50  19  29 VRB6      30.25F
6HR MIN TEMP:  28; 6HR MAX TEMP:  51;

HOT SPRINGS    SUNNY     53  22  29 NW8       30.24F
6HR MIN TEMP:  29; 6HR MAX TEMP:  53;

RUSSELLVILLE   SUNNY     49  11  21 W6        30.25F
6HR MIN TEMP:  27; 6HR MAX TEMP:  50;

CLINTON        FAIR      48  16  27 NW5       30.25F
$$

ARZ036-251900-
EAST ARKANSAS

CITY           SKY/WX    TMP DP  RH WIND       PRES   REMARKS
WEST MEMPHIS   MOSUNNY   46  28  49 NW9       30.21F
6HR MIN TEMP:  33; 6HR MAX TEMP:  46;

$$

ARZ050-053-066-070-073-251900-
SOUTHWEST ARKANSAS

CITY           SKY/WX    TMP DP  RH WIND       PRES   REMARKS
ARKADELPHIA    FAIR      54  26  34 VRB7      30.25F
6HR MIN TEMP:  28; 6HR MAX TEMP:  54;

CAMDEN         MOSUNNY   55  25  30 CALM      30.27F
TEXARKANA      SUNNY     56  24  29 VRB5      30.25F
6HR MIN TEMP:  33; 6HR MAX TEMP:  56;

EL DORADO      PTSUNNY   52  28  39 N6        30.26F
6HR MIN TEMP:  32; 6HR MAX TEMP:  52;

DE QUEEN       SUNNY     56  26  31 N6        30.24F
6HR MIN TEMP:  26; 6HR MAX TEMP:  56;

$$

ARZ056-057-069-251900-
SOUTHEAST ARKANSAS

CITY           SKY/WX    TMP DP  RH WIND       PRES   REMARKS
PINE BLUFF     PTSUNNY   48  25  40 CALM      30.25F
6HR MIN TEMP:  32; 6HR MAX TEMP:  49;

STUTTGART      MOSUNNY   48  23  37 NW6       30.25F
6HR MIN TEMP:  34; 6HR MAX TEMP:  48;

MONTICELLO     CLOUDY    50  25  37 VRB3      30.25F
6HR MIN TEMP:  33; 6HR MAX TEMP:  50;


$$




USA.gov is the U.S. government's official web portal to all federal, state and local government web resources and services.